QPF
0.00 0.00 0.01 0.01 0.02 0.02 0.02 0.02 0.01 0.01 0.01 0.01 0.02 0.03 0.03 0.04 0.06 0.06 0.05 0.04 0.04 0.05 0.06 0.06 0.06 0.08 0.13 0.14 0.15 0.15 0.15 0.15 0.16 0.13 0.10 0.08 0.06 0.06 0.07 0.06 0.07 0.07 0.07
0.00 0.00 0.01 0.02 0.02 0.02 0.02 0.02 0.01 0.01 0.01 0.02 0.02 0.03 0.04 0.05 0.07 0.05 0.05 0.05 0.05 0.05 0.04 0.05 0.06 0.07 0.08 0.10 0.13 0.14 0.15 0.15 0.15 0.15 0.13 0.11 0.08 0.07 0.08 0.08 0.08 0.08 0.09
0.00 0.00 0.00 0.01 0.02 0.01 0.01 0.02 0.02 0.01 0.01 0.01 0.02 0.03 0.04 0.06 0.08 0.05 0.05 0.05 0.05 0.05 0.06 0.06 0.07 0.06 0.06 0.06 0.06 0.08 0.11 0.13 0.14 0.13 0.13 0.12 0.12 0.12 0.12 0.12 0.12 0.11 0.09
0.00 0.00 0.00 0.00 0.01 0.01 0.01 0.01 0.02 0.03 0.03 0.02 0.03 0.04 0.04 0.04 0.06 0.06 0.06 0.05 0.04 0.04 0.06 0.06 0.06 0.06 0.05 0.05 0.04 0.05 0.07 0.11 0.14 0.13 0.12 0.12 0.12 0.15 0.16 0.18 0.17 0.15 0.13
0.00 0.00 0.00 0.00 0.00 0.00 0.01 0.00 0.01 0.03 0.04 0.04 0.04 0.04 0.04 0.04 0.06 0.08 0.08 0.05 0.04 0.04 0.04 0.04 0.05 0.06 0.06 0.07 0.06 0.06 0.06 0.07 0.12 0.13 0.12 0.11 0.11 0.13 0.14 0.16 0.18 0.17 0.15
0.00 0.00 0.00 0.00 0.00 0.00 0.00 0.00 0.00 0.02 0.04 0.04 0.04 0.05 0.05 0.05 0.05 0.07 0.08 0.06 0.05 0.04 0.04 0.04 0.05 0.06 0.06 0.06 0.06 0.07 0.09 0.08 0.10 0.12 0.11 0.10 0.09 0.10 0.11 0.12 0.13 0.15 0.15
0.00 0.00 0.00 0.00 0.00 0.00 0.00 0.00 0.00 0.00 0.01 0.02 0.03 0.06 0.06 0.04 0.04 0.05 0.08 0.08 0.06 0.06 0.05 0.04 0.04 0.05 0.06 0.06 0.05 0.06 0.09 0.12 0.12 0.12 0.13 0.12 0.11 0.13 0.12 0.11 0.13 0.13 0.13
0.00 0.00 0.00 0.00 0.00 0.00 0.00 0.00 0.00 0.00 0.01 0.01 0.03 0.04 0.03 0.03 0.04 0.05 0.07 0.07 0.06 0.05 0.06 0.06 0.05 0.05 0.06 0.07 0.07 0.07 0.08 0.10 0.12 0.11 0.14 0.15 0.14 0.16 0.16 0.15 0.15 0.15 0.15
0.00 0.00 0.00 0.00 0.00 0.00 0.00 0.00 0.00 0.01 0.01 0.01 0.03 0.04 0.03 0.03 0.03 0.03 0.04 0.03 0.04 0.04 0.06 0.06 0.05 0.04 0.05 0.07 0.09 0.10 0.10 0.10 0.12 0.12 0.12 0.14 0.15 0.16 0.17 0.15 0.14 0.14 0.14
0.00 0.00 0.00 0.00 0.00 0.00 0.00 0.00 0.01 0.01 0.01 0.01 0.02 0.03 0.04 0.05 0.04 0.03 0.03 0.02 0.03 0.03 0.04 0.04 0.04 0.04 0.04 0.05 0.08 0.09 0.08 0.09 0.08 0.10 0.10 0.09 0.09 0.10 0.12 0.12 0.11 0.12 0.11
0.00 0.00 0.00 0.00 0.00 0.00 0.00 0.00 0.01 0.01 0.00 0.00 0.00 0.01 0.02 0.03 0.03 0.02 0.02 0.03 0.04 0.04 0.03 0.03 0.03 0.04 0.05 0.05 0.08 0.10 0.09 0.08 0.07 0.07 0.10 0.09 0.08 0.08 0.09 0.10 0.11 0.11 0.11
0.00 0.00 0.00 0.00 0.00 0.00 0.00 0.00 0.00 0.00 0.00 0.00 0.00 0.00 0.00 0.01 0.02 0.02 0.02 0.02 0.04 0.04 0.03 0.02 0.02 0.03 0.03 0.04 0.06 0.07 0.09 0.08 0.07 0.07 0.07 0.08 0.08 0.08 0.08 0.08 0.09 0.11 0.12
0.00 0.00 0.00 0.00 0.00 0.00 0.00 0.00 0.00 0.00 0.00 0.00 0.00 0.00 0.00 0.00 0.01 0.02 0.02 0.02 0.03 0.04 0.02 0.02 0.02 0.02 0.02 0.03 0.04 0.04 0.05 0.05 0.06 0.06 0.07 0.06 0.05 0.06 0.06 0.07 0.07 0.08 0.08
0.00 0.00 0.00 0.00 0.00 0.00 0.00 0.00 0.00 0.00 0.00 0.00 0.00 0.00 0.00 0.00 0.00 0.01 0.01 0.00 0.01 0.04 0.02 0.01 0.01 0.02 0.02 0.02 0.02 0.03 0.04 0.05 0.05 0.04 0.05 0.05 0.05 0.06 0.06 0.05 0.06 0.06 0.05
0.00 0.00 0.00 0.00 0.00 0.00 0.00 0.00 0.00 0.00 0.00 0.00 0.00 0.00 0.00 0.00 0.00 0.00 0.00 0.00 0.01 0.01 0.01 0.01 0.01 0.02 0.03 0.02 0.02 0.02 0.03 0.04 0.04 0.03 0.04 0.06 0.05 0.06 0.07 0.05 0.05 0.04 0.04
0.00 0.00 0.00 0.00 0.00 0.00 0.00 0.00 0.00 0.00 0.00 0.00 0.00 0.00 0.00 0.00 0.00 0.00 0.00 0.00 0.00 0.00 0.01 0.01 0.01 0.02 0.03 0.02 0.02 0.02 0.03 0.04 0.03 0.04 0.05 0.06 0.06 0.06 0.06 0.04 0.04 0.03 0.03
0.00 0.00 0.00 0.00 0.00 0.00 0.00 0.00 0.00 0.00 0.00 0.00 0.00 0.00 0.00 0.00 0.00 0.00 0.00 0.00 0.00 0.00 0.00 0.01 0.01 0.01 0.02 0.03 0.02 0.02 0.02 0.03 0.04 0.05 0.06 0.06 0.06 0.05 0.05 0.04 0.02 0.01 0.01
0.00 0.00 0.00 0.00 0.00 0.00 0.00 0.00 0.00 0.00 0.00 0.00 0.00 0.00 0.00 0.00 0.00 0.00 0.00 0.00 0.00 0.00 0.00 0.00 0.00 0.00 0.00 0.01 0.02 0.01 0.01 0.01 0.01 0.04 0.04 0.03 0.04 0.04 0.04 0.03 0.02 0.01 0.01
0.00 0.00 0.00 0.00 0.00 0.00 0.00 0.00 0.00 0.00 0.00 0.00 0.00 0.00 0.00 0.00 0.00 0.00 0.00 0.00 0.00 0.00 0.00 0.00 0.00 0.00 0.00 0.00 0.00 0.01 0.00 0.00 0.00 0.01 0.01 0.01 0.01 0.01 0.01 0.01 0.01 0.01 0.01
0.00 0.00 0.00 0.00 0.00 0.00 0.00 0.00 0.00 0.00 0.00 0.00 0.00 0.00 0.00 0.00 0.00 0.00 0.00 0.00 0.00 0.00 0.00 0.00 0.00 0.00 0.00 0.00 0.00 0.00 0.00 0.00 0.00 0.00 0.00 0.01 0.01 0.01 0.01 0.01 0.01 0.00 0.00
0.00 0.00 0.00 0.00 0.00 0.00 0.00 0.00 0.00 0.00 0.00 0.00 0.00 0.00 0.00 0.00 0.00 0.00 0.00 0.00 0.00 0.00 0.00 0.00 0.00 0.00 0.00 0.00 0.00 0.00 0.00 0.00 0.00 0.00 0.00 0.00 0.00 0.01 0.01 0.01 0.01 0.01 0.01
0.00 0.00 0.00 0.00 0.00 0.00 0.00 0.00 0.00 0.00 0.00 0.00 0.00 0.00 0.00 0.00 0.00 0.00 0.00 0.00 0.00 0.00 0.00 0.00 0.00 0.00 0.00 0.00 0.00 0.00 0.00 0.00 0.00 0.00 0.00 0.00 0.00 0.00 0.00 0.00 0.00 0.00 0.00
0.00 0.00 0.00 0.00 0.00 0.00 0.00 0.00 0.00 0.00 0.00 0.00 0.00 0.00 0.00 0.00 0.00 0.00 0.00 0.00 0.00 0.00 0.00 0.00 0.00 0.00 0.00 0.00 0.00 0.00 0.00 0.00 0.00 0.00 0.00 0.00 0.00 0.00 0.00 0.00 0.00 0.00 0.00
0.00 0.00 0.00 0.00 0.00 0.00 0.00 0.00 0.00 0.00 0.00 0.00 0.00 0.00 0.00 0.00 0.00 0.00 0.00 0.00 0.00 0.00 0.00 0.00 0.00 0.00 0.00 0.00 0.00 0.00 0.00 0.00 0.00 0.00 0.00 0.00 0.00 0.00 0.00 0.00 0.00 0.00 0.00
0.00 0.00 0.00 0.00 0.00 0.00 0.00 0.00 0.00 0.00 0.00 0.00 0.00 0.00 0.00 0.00 0.00 0.00 0.00 0.00 0.00 0.00 0.00 0.00 0.00 0.00 0.00 0.00 0.00 0.00 0.00 0.00 0.00 0.00 0.00 0.00 0.00 0.00 0.00 0.00 0.00 0.00 0.00
0.00 0.00 0.00 0.00 0.00 0.00 0.00 0.00 0.00 0.00 0.00 0.00 0.00 0.00 0.00 0.00 0.00 0.00 0.00 0.00 0.00 0.00 0.00 0.00 0.00 0.00 0.00 0.00 0.00 0.00 0.00 0.00 0.00 0.00 0.00 0.00 0.00 0.00 0.00 0.00 0.00 0.00 0.00
MSLP
1017.42 1017.28 1017.10 1016.87 1016.57 1016.21 1015.80 1015.35 1014.89 1014.42 1013.95 1013.48 1013.02 1012.56 1012.10 1011.65 1011.21 1010.81 1010.47 1010.19 1010.01 1009.92 1009.92 1010.00 1010.14 1010.33 1010.53 1010.73 1010.92 1011.09 1011.22 1011.34 1011.45 1011.56 1011.68 1011.82 1012.00 1012.20 1012.45 1012.73 1013.05 1013.39 1013.75
1017.33 1017.20 1017.03 1016.80 1016.51 1016.17 1015.79 1015.39 1014.96 1014.54 1014.11 1013.68 1013.25 1012.81 1012.36 1011.90 1011.46 1011.03 1010.66 1010.35 1010.13 1010.01 1009.97 1010.03 1010.15 1010.32 1010.51 1010.71 1010.90 1011.06 1011.20 1011.31 1011.41 1011.51 1011.62 1011.76 1011.92 1012.12 1012.36 1012.63 1012.94 1013.26 1013.59
1017.19 1017.10 1016.95 1016.76 1016.50 1016.21 1015.87 1015.51 1015.14 1014.77 1014.39 1014.00 1013.59 1013.17 1012.72 1012.26 1011.80 1011.36 1010.96 1010.62 1010.37 1010.22 1010.16 1010.19 1010.29 1010.44 1010.61 1010.77 1010.92 1011.04 1011.13 1011.19 1011.24 1011.29 1011.37 1011.48 1011.63 1011.83 1012.09 1012.38 1012.71 1013.06 1013.41
1017.02 1016.98 1016.89 1016.74 1016.54 1016.29 1016.00 1015.70 1015.39 1015.06 1014.73 1014.38 1014.01 1013.60 1013.16 1012.70 1012.23 1011.77 1011.35 1010.99 1010.72 1010.54 1010.46 1010.46 1010.52 1010.63 1010.74 1010.85 1010.92 1010.94 1010.93 1010.89 1010.85 1010.81 1010.82 1010.88 1011.02 1011.24 1011.54 1011.89 1012.30 1012.72 1013.15
1016.85 1016.87 1016.83 1016.73 1016.58 1016.38 1016.14 1015.90 1015.63 1015.36 1015.08 1014.77 1014.43 1014.05 1013.62 1013.17 1012.70 1012.23 1011.80 1011.43 1011.14 1010.93 1010.82 1010.78 1010.80 1010.84 1010.87 1010.87 1010.82 1010.72 1010.56 1010.38 1010.19 1010.04 1009.95 1009.96 1010.09 1010.33 1010.69 1011.15 1011.67 1012.22 1012.78
1016.70 1016.76 1016.77 1016.71 1016.59 1016.43 1016.24 1016.03 1015.81 1015.59 1015.34 1015.08 1014.78 1014.43 1014.04 1013.60 1013.15 1012.69 1012.26 1011.88 1011.57 1011.34 1011.19 1011.10 1011.05 1011.01 1010.93 1010.81 1010.61 1010.34 1010.02 1009.67 1009.32 1009.03 1008.85 1008.80 1008.91 1009.19 1009.63 1010.20 1010.87 1011.58 1012.30
1016.56 1016.66 1016.70 1016.66 1016.56 1016.42 1016.25 1016.07 1015.88 1015.69 1015.48 1015.26 1015.00 1014.69 1014.34 1013.94 1013.51 1013.08 1012.65 1012.27 1011.95 1011.70 1011.51 1011.36 1011.23 1011.09 1010.90 1010.64 1010.29 1009.86 1009.37 1008.85 1008.35 1007.93 1007.65 1007.54 1007.65 1007.96 1008.49 1009.18 1010.00 1010.89 1011.78
1016.43 1016.55 1016.59 1016.55 1016.46 1016.32 1016.15 1015.97 1015.80 1015.63 1015.46 1015.27 1015.05 1014.79 1014.49 1014.13 1013.74 1013.34 1012.94 1012.56 1012.23 1011.95 1011.72 1011.51 1011.30 1011.07 1010.77 1010.38 1009.90 1009.34 1008.71 1008.06 1007.44 1006.93 1006.57 1006.43 1006.53 1006.88 1007.47 1008.27 1009.22 1010.25 1011.30
1016.30 1016.41 1016.44 1016.39 1016.28 1016.13 1015.95 1015.77 1015.60 1015.44 1015.28 1015.12 1014.94 1014.73 1014.47 1014.17 1013.82 1013.45 1013.07 1012.71 1012.37 1012.07 1011.79 1011.53 1011.26 1010.94 1010.56 1010.09 1009.53 1008.87 1008.16 1007.44 1006.77 1006.20 1005.82 1005.66 1005.76 1006.14 1006.78 1007.64 1008.66 1009.78 1010.93
1016.11 1016.21 1016.23 1016.17 1016.04 1015.87 1015.68 1015.49 1015.31 1015.15 1015.01 1014.87 1014.72 1014.55 1014.33 1014.07 1013.77 1013.43 1013.08 1012.73 1012.38 1012.06 1011.75 1011.44 1011.12 1010.76 1010.33 1009.82 1009.22 1008.55 1007.83 1007.11 1006.44 1005.89 1005.52 1005.37 1005.49 1005.88 1006.53 1007.40 1008.44 1009.57 1010.74
1015.85 1015.94 1015.95 1015.88 1015.74 1015.56 1015.36 1015.17 1014.98 1014.83 1014.69 1014.57 1014.44 1014.30 1014.12 1013.90 1013.63 1013.33 1012.99 1012.65 1012.30 1011.96 1011.62 1011.29 1010.94 1010.55 1010.12 1009.62 1009.05 1008.42 1007.76 1007.11 1006.51 1006.03 1005.71 1005.61 1005.75 1006.13 1006.76 1007.58 1008.57 1009.64 1010.75
1015.48 1015.57 1015.58 1015.51 1015.39 1015.22 1015.02 1014.83 1014.65 1014.50 1014.37 1014.26 1014.15 1014.03 1013.88 1013.69 1013.46 1013.18 1012.87 1012.53 1012.18 1011.83 1011.48 1011.12 1010.76 1010.38 1009.97 1009.51 1009.01 1008.48 1007.93 1007.40 1006.93 1006.55 1006.33 1006.28 1006.45 1006.82 1007.39 1008.14 1009.01 1009.96 1010.93
1014.98 1015.08 1015.11 1015.07 1014.96 1014.81 1014.64 1014.47 1014.31 1014.17 1014.05 1013.96 1013.87 1013.77 1013.65 1013.50 1013.29 1013.05 1012.75 1012.43 1012.08 1011.72 1011.36 1011.00 1010.64 1010.27 1009.90 1009.50 1009.10 1008.68 1008.27 1007.89 1007.56 1007.32 1007.21 1007.23 1007.42 1007.78 1008.28 1008.92 1009.65 1010.43 1011.23
1014.38 1014.49 1014.53 1014.52 1014.44 1014.33 1014.19 1014.05 1013.91 1013.79 1013.70 1013.63 1013.57 1013.50 1013.41 1013.29 1013.13 1012.91 1012.65 1012.35 1012.01 1011.66 1011.30 1010.93 1010.58 1010.23 1009.90 1009.57 1009.25 1008.95 1008.68 1008.44 1008.26 1008.15 1008.14 1008.24 1008.46 1008.79 1009.23 1009.75 1010.33 1010.95 1011.57
1013.70 1013.80 1013.85 1013.86 1013.81 1013.73 1013.62 1013.51 1013.40 1013.31 1013.25 1013.20 1013.17 1013.14 1013.10 1013.03 1012.91 1012.75 1012.53 1012.26 1011.96 1011.62 1011.27 1010.91 1010.56 1010.23 1009.93 1009.65 1009.41 1009.20 1009.03 1008.91 1008.85 1008.86 1008.94 1009.09 1009.33 1009.65 1010.03 1010.46 1010.92 1011.39 1011.85
1013.00 1013.06 1013.10 1013.09 1013.06 1012.99 1012.90 1012.81 1012.72 1012.66 1012.62 1012.60 1012.61 1012.62 1012.63 1012.62 1012.57 1012.46 1012.31 1012.10 1011.84 1011.54 1011.21 1010.87 1010.53 1010.22 1009.93 1009.69 1009.49 1009.34 1009.24 1009.20 1009.22 1009.30 1009.44 1009.64 1009.90 1010.20 1010.54 1010.91 1011.29 1011.66 1012.02
1012.34 1012.34 1012.32 1012.28 1012.22 1012.13 1012.03 1011.94 1011.86 1011.80 1011.77 1011.78 1011.82 1011.88 1011.94 1011.98 1012.00 1011.98 1011.90 1011.76 1011.56 1011.31 1011.03 1010.72 1010.41 1010.11 1009.85 1009.62 1009.44 1009.32 1009.26 1009.26 1009.31 1009.43 1009.60 1009.82 1010.09 1010.39 1010.71 1011.05 1011.38 1011.71 1012.02
1011.82 1011.71 1011.60 1011.49 1011.36 1011.22 1011.08 1010.96 1010.85 1010.78 1010.74 1010.75 1010.81 1010.89 1010.99 1011.10 1011.18 1011.22 1011.22 1011.16 1011.04 1010.86 1010.64 1010.38 1010.11 1009.85 1009.61 1009.40 1009.24 1009.13 1009.08 1009.09 1009.16 1009.29 1009.46 1009.68 1009.94 1010.24 1010.55 1010.88 1011.21 1011.54 1011.86
1011.49 1011.26 1011.04 1010.81 1010.59 1010.37 1010.16 1009.97 1009.81 1009.69 1009.62 1009.60 1009.64 1009.73 1009.84 1009.97 1010.10 1010.20 1010.26 1010.27 1010.22 1010.12 1009.97 1009.78 1009.58 1009.37 1009.18 1009.01 1008.88 1008.79 1008.75 1008.77 1008.84 1008.95 1009.12 1009.32 1009.57 1009.85 1010.16 1010.49 1010.84 1011.19 1011.54
1011.41 1011.05 1010.70 1010.36 1010.03 1009.70 1009.40 1009.12 1008.87 1008.68 1008.54 1008.47 1008.46 1008.50 1008.59 1008.71 1008.84 1008.96 1009.05 1009.11 1009.12 1009.09 1009.02 1008.91 1008.79 1008.66 1008.54 1008.44 1008.37 1008.33 1008.32 1008.36 1008.43 1008.54 1008.69 1008.87 1009.10 1009.36 1009.66 1009.99 1010.34 1010.72 1011.11
1011.59 1011.12 1010.66 1010.21 1009.76 1009.33 1008.92 1008.54 1008.20 1007.91 1007.68 1007.52 1007.42 1007.39 1007.41 1007.46 1007.54 1007.63 1007.71 1007.78 1007.82 1007.84 1007.83 1007.81 1007.78 1007.75 1007.73 1007.72 1007.74 1007.78 1007.84 1007.92 1008.01 1008.13 1008.27 1008.44 1008.64 1008.88 1009.15 1009.47 1009.82 1010.21 1010.62
1012.01 1011.46 1010.92 1010.38 1009.85 1009.33 1008.83 1008.36 1007.92 1007.53 1007.19 1006.92 1006.70 1006.55 1006.46 1006.41 1006.39 1006.39 1006.41 1006.43 1006.45 1006.48 1006.50 1006.54 1006.60 1006.67 1006.77 1006.88 1007.02 1007.16 1007.32 1007.47 1007.62 1007.78 1007.93 1008.10 1008.27 1008.48 1008.72 1009.01 1009.34 1009.71 1010.13
1012.59 1012.01 1011.43 1010.85 1010.27 1009.70 1009.14 1008.59 1008.07 1007.59 1007.15 1006.76 1006.42 1006.14 1005.90 1005.70 1005.54 1005.40 1005.30 1005.22 1005.17 1005.16 1005.18 1005.24 1005.35 1005.51 1005.71 1005.94 1006.20 1006.47 1006.74 1007.00 1007.24 1007.45 1007.65 1007.82 1007.99 1008.18 1008.39 1008.63 1008.92 1009.26 1009.64
1013.23 1012.67 1012.10 1011.51 1010.93 1010.34 1009.75 1009.17 1008.60 1008.05 1007.54 1007.05 1006.59 1006.17 1005.78 1005.42 1005.09 1004.79 1004.53 1004.30 1004.13 1004.02 1003.98 1004.02 1004.14 1004.34 1004.61 1004.94 1005.31 1005.70 1006.09 1006.46 1006.79 1007.09 1007.34 1007.55 1007.74 1007.91 1008.10 1008.31 1008.56 1008.85 1009.19
1013.82 1013.30 1012.77 1012.22 1011.67 1011.10 1010.52 1009.94 1009.36 1008.79 1008.22 1007.67 1007.12 1006.59 1006.06 1005.55 1005.06 1004.58 1004.14 1003.75 1003.42 1003.17 1003.02 1002.98 1003.05 1003.23 1003.52 1003.89 1004.33 1004.81 1005.30 1005.77 1006.20 1006.58 1006.90 1007.17 1007.39 1007.59 1007.78 1007.97 1008.19 1008.44 1008.74
1014.26 1013.80 1013.33 1012.83 1012.32 1011.80 1011.26 1010.72 1010.16 1009.60 1009.03 1008.46 1007.87 1007.26 1006.65 1006.02 1005.38 1004.74 1004.13 1003.56 1003.06 1002.64 1002.34 1002.16 1002.13 1002.23 1002.47 1002.83 1003.28 1003.80 1004.34 1004.88 1005.39 1005.85 1006.25 1006.58 1006.86 1007.10 1007.31 1007.52 1007.74 1007.97 1008.24
Thickness
5657 5654 5651 5649 5646 5645 5643 5641 5642 5643 5644 5645 5647 5649 5651 5654 5657 5658 5660 5663 5666 5669 5673 5676 5679 5683 5686 5688 5691 5692 5694 5695 5693 5695 5699 5701 5703 5705 5705 5707 5707 5707 5706
5658 5655 5652 5649 5647 5646 5644 5642 5643 5643 5644 5645 5646 5646 5648 5650 5653 5655 5657 5660 5662 5664 5668 5671 5675 5678 5680 5683 5685 5686 5688 5690 5689 5687 5689 5692 5695 5698 5699 5699 5700 5700 5699
5660 5656 5654 5652 5648 5646 5644 5643 5643 5643 5643 5644 5644 5644 5645 5647 5649 5651 5653 5656 5658 5661 5663 5666 5669 5672 5674 5677 5679 5681 5682 5684 5684 5684 5684 5685 5687 5689 5690 5690 5691 5691 5690
5663 5658 5655 5652 5649 5647 5645 5644 5643 5642 5642 5642 5643 5643 5643 5644 5645 5647 5649 5651 5654 5656 5659 5661 5664 5666 5668 5671 5674 5676 5676 5677 5678 5679 5679 5679 5680 5682 5682 5681 5681 5681 5680
5666 5661 5658 5655 5652 5649 5647 5645 5643 5641 5641 5641 5640 5640 5640 5640 5640 5641 5644 5647 5649 5651 5654 5657 5659 5660 5662 5665 5668 5670 5671 5672 5674 5674 5674 5674 5674 5674 5675 5675 5674 5672 5671
5669 5664 5660 5656 5653 5650 5647 5645 5643 5642 5640 5639 5638 5637 5637 5637 5635 5636 5638 5643 5645 5647 5649 5652 5654 5656 5656 5657 5660 5663 5665 5668 5670 5671 5671 5671 5671 5672 5671 5670 5667 5665 5663
5672 5667 5662 5658 5654 5651 5649 5646 5644 5642 5640 5637 5636 5635 5635 5633 5632 5633 5634 5638 5641 5643 5645 5648 5650 5652 5653 5655 5655 5656 5659 5662 5665 5669 5669 5669 5670 5670 5668 5665 5663 5662 5660
5674 5669 5664 5660 5656 5653 5650 5646 5645 5643 5640 5637 5635 5634 5633 5631 5630 5630 5632 5636 5638 5639 5641 5643 5645 5648 5650 5651 5652 5653 5656 5658 5661 5664 5667 5669 5669 5668 5666 5664 5661 5656 5652
5675 5671 5667 5662 5658 5654 5651 5648 5646 5643 5641 5639 5637 5634 5633 5632 5629 5629 5630 5634 5635 5636 5637 5639 5640 5642 5642 5644 5647 5649 5650 5652 5653 5655 5658 5660 5660 5660 5659 5656 5652 5650 5646
5678 5674 5669 5665 5660 5656 5653 5651 5648 5645 5642 5640 5638 5636 5635 5633 5629 5629 5630 5633 5633 5634 5634 5635 5634 5636 5637 5640 5645 5647 5646 5648 5649 5650 5651 5652 5653 5652 5651 5652 5651 5647 5644
5681 5676 5671 5667 5663 5659 5656 5653 5651 5648 5645 5643 5641 5639 5637 5633 5631 5628 5629 5632 5632 5632 5633 5633 5633 5633 5634 5636 5640 5644 5643 5644 5646 5646 5647 5647 5647 5647 5646 5646 5646 5646 5643
5682 5677 5673 5670 5666 5663 5659 5656 5654 5651 5648 5646 5644 5642 5640 5637 5631 5629 5628 5629 5629 5631 5632 5632 5631 5631 5632 5634 5636 5637 5637 5639 5641 5642 5641 5641 5641 5641 5640 5640 5640 5640 5640
5683 5679 5676 5673 5668 5665 5662 5659 5657 5654 5652 5649 5647 5645 5643 5640 5637 5631 5629 5629 5629 5631 5630 5628 5628 5629 5630 5632 5631 5633 5635 5638 5639 5638 5637 5636 5636 5635 5634 5633 5633 5632 5632
5685 5682 5679 5676 5673 5669 5664 5662 5659 5657 5654 5652 5649 5647 5645 5643 5641 5637 5635 5634 5631 5632 5631 5629 5627 5627 5629 5629 5630 5633 5635 5636 5636 5636 5634 5632 5631 5630 5630 5630 5629 5628 5626
5687 5684 5681 5678 5674 5670 5668 5663 5661 5658 5655 5651 5651 5649 5646 5644 5640 5633 5634 5635 5634 5633 5632 5633 5632 5632 5632 5631 5632 5632 5633 5633 5632 5632 5631 5630 5629 5628 5627 5627 5627 5627 5626
5688 5686 5683 5679 5675 5672 5669 5667 5661 5657 5653 5649 5646 5644 5646 5641 5637 5634 5633 5631 5631 5630 5632 5634 5634 5633 5632 5632 5631 5631 5631 5631 5631 5630 5629 5629 5628 5626 5626 5625 5624 5625 5624
5686 5685 5682 5679 5677 5673 5670 5668 5666 5661 5654 5651 5648 5646 5643 5641 5638 5636 5634 5632 5632 5631 5635 5637 5636 5635 5634 5633 5632 5631 5631 5631 5630 5628 5628 5627 5627 5626 5624 5623 5623 5622 5621
5684 5682 5679 5677 5675 5674 5672 5669 5667 5665 5663 5661 5655 5649 5646 5643 5640 5637 5635 5633 5637 5636 5638 5639 5638 5637 5636 5635 5634 5632 5631 5630 5629 5628 5627 5626 5625 5624 5623 5622 5621 5620 5620
5678 5678 5676 5675 5673 5672 5671 5669 5667 5665 5663 5662 5661 5656 5649 5645 5641 5638 5635 5638 5642 5642 5642 5640 5640 5639 5637 5636 5635 5633 5632 5630 5629 5628 5627 5626 5625 5624 5622 5621 5620 5616 5616
5672 5670 5668 5669 5670 5669 5668 5666 5665 5664 5663 5662 5661 5659 5656 5649 5648 5646 5641 5642 5644 5644 5643 5642 5641 5640 5638 5637 5635 5633 5632 5630 5629 5628 5627 5625 5624 5623 5622 5621 5620 5618 5616
5664 5665 5661 5662 5664 5664 5664 5663 5663 5662 5661 5661 5661 5660 5655 5652 5652 5651 5650 5647 5646 5646 5645 5643 5642 5640 5639 5637 5635 5634 5633 5632 5630 5629 5627 5626 5624 5622 5622 5621 5620 5618 5617
5653 5655 5656 5656 5657 5657 5657 5658 5658 5657 5658 5657 5657 5657 5650 5648 5651 5651 5651 5650 5649 5647 5646 5645 5643 5642 5640 5638 5636 5635 5634 5633 5631 5629 5627 5626 5624 5622 5621 5620 5619 5618 5616
5639 5642 5644 5645 5647 5647 5647 5649 5650 5650 5650 5651 5652 5652 5650 5648 5649 5649 5650 5650 5649 5647 5646 5644 5643 5642 5641 5639 5638 5636 5635 5634 5633 5631 5628 5626 5624 5622 5621 5619 5618 5616 5615
5624 5626 5628 5630 5632 5633 5635 5637 5639 5640 5641 5642 5643 5644 5644 5645 5645 5646 5647 5647 5647 5646 5645 5643 5642 5642 5640 5639 5637 5636 5635 5634 5632 5630 5627 5626 5623 5622 5620 5618 5617 5616 5614
5607 5608 5610 5612 5614 5616 5618 5620 5622 5625 5627 5629 5631 5633 5635 5636 5638 5639 5641 5641 5641 5642 5642 5641 5640 5639 5639 5638 5636 5635 5634 5631 5628 5627 5625 5623 5622 5620 5619 5617 5616 5614 5612
5588 5589 5590 5592 5593 5595 5597 5599 5602 5604 5607 5610 5613 5617 5620 5623 5626 5629 5631 5633 5634 5635 5636 5637 5638 5637 5637 5636 5635 5633 5630 5627 5624 5621 5621 5620 5619 5618 5616 5615 5613 5612 5610